[Date Prev][Date Next][Thread Prev][Thread Next] - [Date Index][Thread Index][Author Index]
2 Line ISS Keps 6-19
- Subject: [sarex] 2 Line ISS Keps 6-19
- From: "Dave Larsen PhD" <doc@xxxxxxxxxxx>
- Date: Thu, 19 Jun 2003 05:02:36 -0700
ISS
1 25544U 98067A 03170.47749176 .00021556 00000-0 26977-3 0 1339
2 25544 51.6331 8.7162 0006723 270.7594 179.6100 15.59714285261366
----
Via the sarex mailing list at AMSAT.ORG courtesy of AMSAT-NA.
To unsubscribe, send "unsubscribe sarex" to Majordomo@amsat.org
AMSAT Home